Stündliche Wetter Holodily

Heute, 25 Juni, Freitag

Zeit Temperatur Niederschläge Wind Luftdruck Luftfeuchtigkeit
00:00 +21°C° 0.4 mm 3 m/S 745 mmHg 90%
01:00 +20°C° 0.4 mm 2 m/S 745 mmHg 91%
02:00 +20°C° 0.4 mm 2 m/S 744 mmHg 92%
03:00 +21°C° 0.1 mm 1 m/S 744 mmHg 91%
04:00 +21°C° 0.1 mm 1 m/S 744 mmHg 89%
05:00 +19°C° 0.1 mm 0 m/S 744 mmHg 87%
06:00 +23°C° 0 mm 1 m/S 744 mmHg 82%
07:00 +24°C° 0 mm 1 m/S 744 mmHg 76%
08:00 +26°C° 0 mm 2 m/S 744 mmHg 71%
09:00 +27°C° 0 mm 2 m/S 744 mmHg 66%
10:00 +29°C° 0 mm 3 m/S 744 mmHg 61%
11:00 +30°C° 0 mm 3 m/S 744 mmHg 57%
12:00 +31°C° 0 mm 3 m/S 744 mmHg 56%
13:00 +31°C° 0 mm 3 m/S 744 mmHg 55%
14:00 +33°C° 0 mm 3 m/S 743 mmHg 55%
15:00 +31°C° 0.6 mm 3 m/S 743 mmHg 59%
16:00 +30°C° 0.6 mm 3 m/S 742 mmHg 63%
17:00 +30°C° 0.6 mm 3 m/S 742 mmHg 68%
18:00 +27°C° 1.3 mm 3 m/S 742 mmHg 75%
19:00 +24°C° 1.3 mm 2 m/S 741 mmHg 82%
20:00 +21°C° 1.3 mm 1 m/S 741 mmHg 90%
21:00 +19°C° 0 mm 2 m/S 742 mmHg 89%
22:00 +19°C° 0 mm 2 m/S 742 mmHg 89%
23:00 +18°C° 0 mm 3 m/S 742 mmHg 89%

Morgen, 26 Juni, Samstag

Zeit Temperatur Niederschläge Wind Luftdruck Luftfeuchtigkeit
00:00 +18°C° 0.2 mm 2 m/S 742 mmHg 91%
01:00 +19°C° 0.2 mm 1 m/S 742 mmHg 93%
02:00 +19°C° 0.2 mm 1 m/S 741 mmHg 94%
03:00 +19°C° 0 mm 1 m/S 741 mmHg 94%
04:00 +18°C° 0 mm 2 m/S 742 mmHg 94%
05:00 +19°C° 0 mm 2 m/S 742 mmHg 93%
06:00 +20°C° 0 mm 2 m/S 742 mmHg 87%
07:00 +21°C° 0 mm 3 m/S 742 mmHg 81%
08:00 +24°C° 0 mm 3 m/S 742 mmHg 74%
09:00 +25°C° 0 mm 3 m/S 742 mmHg 70%
10:00 +26°C° 0 mm 3 m/S 742 mmHg 65%
11:00 +27°C° 0 mm 3 m/S 742 mmHg 60%
12:00 +28°C° 0 mm 3 m/S 742 mmHg 59%
13:00 +29°C° 0 mm 3 m/S 742 mmHg 57%
14:00 +29°C° 0 mm 3 m/S 742 mmHg 56%
15:00 +29°C° 0 mm 3 m/S 742 mmHg 59%
16:00 +29°C° 0 mm 3 m/S 742 mmHg 62%
17:00 +28°C° 0 mm 3 m/S 742 mmHg 65%
18:00 +27°C° 0 mm 3 m/S 742 mmHg 72%
19:00 +25°C° 0 mm 3 m/S 742 mmHg 80%
20:00 +23°C° 0 mm 2 m/S 742 mmHg 87%
21:00 +21°C° 0 mm 2 m/S 742 mmHg 90%
22:00 +20°C° 0 mm 2 m/S 742 mmHg 93%
23:00 +19°C° 0 mm 2 m/S 743 mmHg 95%

übermorgen, 27 Juni, Sonntag

Zeit Temperatur Niederschläge Wind Luftdruck Luftfeuchtigkeit
00:00 +19°C° 0.7 mm 2 m/S 743 mmHg 96%
01:00 +18°C° 0.7 mm 2 m/S 743 mmHg 97%
02:00 +18°C° 0.7 mm 2 m/S 743 mmHg 98%
03:00 +18°C° 0.3 mm 2 m/S 743 mmHg 97%
04:00 +19°C° 0.3 mm 2 m/S 742 mmHg 97%
05:00 +19°C° 0.3 mm 2 m/S 742 mmHg 97%
06:00 +19°C° 0.8 mm 2 m/S 743 mmHg 97%
07:00 +19°C° 0.8 mm 2 m/S 743 mmHg 97%
08:00 +19°C° 0.8 mm 2 m/S 743 mmHg 98%
09:00 +19°C° 0.1 mm 2 m/S 743 mmHg 96%
10:00 +20°C° 0.1 mm 2 m/S 743 mmHg 94%
11:00 +21°C° 0.1 mm 2 m/S 743 mmHg 92%
12:00 +21°C° 0.3 mm 3 m/S 743 mmHg 92%
13:00 +20°C° 0.3 mm 3 m/S 743 mmHg 93%
14:00 +20°C° 0.3 mm 3 m/S 743 mmHg 93%
15:00 +21°C° 0.1 mm 3 m/S 743 mmHg 91%
16:00 +21°C° 0.1 mm 3 m/S 743 mmHg 89%
17:00 +21°C° 0.1 mm 3 m/S 743 mmHg 87%
18:00 +21°C° 0 mm 2 m/S 743 mmHg 88%
19:00 +20°C° 0 mm 2 m/S 743 mmHg 89%
20:00 +20°C° 0 mm 1 m/S 743 mmHg 90%
21:00 +20°C° 0 mm 1 m/S 743 mmHg 91%
22:00 +19°C° 0 mm 1 m/S 743 mmHg 92%
23:00 +18°C° 0 mm 1 m/S 743 mmHg 93%

28 Juni, Montag

Zeit Temperatur Niederschläge Wind Luftdruck Luftfeuchtigkeit
00:00 +17°C° 0 mm 2 m/S 743 mmHg 94%
01:00 +17°C° 0 mm 2 m/S 743 mmHg 94%
02:00 +17°C° 0 mm 2 m/S 743 mmHg 94%
03:00 +17°C° 0 mm 2 m/S 743 mmHg 94%
04:00 +17°C° 0 mm 2 m/S 743 mmHg 93%
05:00 +17°C° 0 mm 2 m/S 743 mmHg 92%
06:00 +19°C° 0 mm 3 m/S 743 mmHg 84%
07:00 +20°C° 0 mm 3 m/S 743 mmHg 76%
08:00 +22°C° 0 mm 4 m/S 743 mmHg 68%
09:00 +22°C° 0 mm 4 m/S 743 mmHg 62%
10:00 +23°C° 0 mm 4 m/S 743 mmHg 56%
11:00 +25°C° 0 mm 4 m/S 743 mmHg 50%
12:00 +26°C° 0 mm 4 m/S 743 mmHg 49%
13:00 +26°C° 0 mm 4 m/S 743 mmHg 47%
14:00 +27°C° 0 mm 4 m/S 743 mmHg 46%
15:00 +27°C° 0 mm 3 m/S 743 mmHg 48%
16:00 +26°C° 0 mm 3 m/S 742 mmHg 51%
17:00 +26°C° 0 mm 3 m/S 742 mmHg 53%
18:00 +25°C° 0 mm 3 m/S 742 mmHg 58%
19:00 +22°C° 0 mm 3 m/S 742 mmHg 64%
20:00 +21°C° 0 mm 3 m/S 742 mmHg 69%
21:00 +20°C° 0 mm 3 m/S 742 mmHg 72%
22:00 +19°C° 0 mm 3 m/S 741 mmHg 75%
23:00 +18°C° 0 mm 3 m/S 741 mmHg 79%

29 Juni, Dienstag

Zeit Temperatur Niederschläge Wind Luftdruck Luftfeuchtigkeit
00:00 +18°C° 0 mm 3 m/S 741 mmHg 79%
01:00 +17°C° 0 mm 3 m/S 741 mmHg 80%
02:00 +17°C° 0 mm 3 m/S 741 mmHg 81%
03:00 +17°C° 0 mm 3 m/S 741 mmHg 80%
04:00 +17°C° 0 mm 3 m/S 741 mmHg 79%
05:00 +17°C° 0 mm 3 m/S 741 mmHg 79%
06:00 +18°C° 0 mm 3 m/S 740 mmHg 77%
07:00 +19°C° 0 mm 3 m/S 740 mmHg 75%
08:00 +20°C° 0 mm 3 m/S 740 mmHg 73%
09:00 +20°C° 0 mm 4 m/S 740 mmHg 70%
10:00 +21°C° 0 mm 4 m/S 740 mmHg 67%
11:00 +22°C° 0 mm 4 m/S 740 mmHg 64%
12:00 +21°C° 0.2 mm 4 m/S 740 mmHg 68%
13:00 +21°C° 0.2 mm 4 m/S 740 mmHg 72%
14:00 +20°C° 0.2 mm 4 m/S 740 mmHg 76%
15:00 +19°C° 0.5 mm 4 m/S 740 mmHg 80%
16:00 +19°C° 0.5 mm 3 m/S 740 mmHg 85%
17:00 +18°C° 0.5 mm 3 m/S 740 mmHg 90%
18:00 +17°C° 0.1 mm 3 m/S 740 mmHg 91%
19:00 +17°C° 0.1 mm 3 m/S 740 mmHg 92%
20:00 +16°C° 0.1 mm 3 m/S 740 mmHg 94%
21:00 +16°C° 0 mm 3 m/S 739 mmHg 92%
22:00 +17°C° 0 mm 3 m/S 739 mmHg 91%
23:00 +17°C° 0 mm 4 m/S 739 mmHg 89%

30 Juni, Mittwoch

Zeit Temperatur Niederschläge Wind Luftdruck Luftfeuchtigkeit
00:00 +17°C° 0 mm 4 m/S 739 mmHg 87%
01:00 +17°C° 0 mm 4 m/S 739 mmHg 85%
02:00 +17°C° 0 mm 4 m/S 738 mmHg 83%
03:00 +18°C° 0 mm 4 m/S 738 mmHg 81%
04:00 +18°C° 0 mm 4 m/S 738 mmHg 80%
05:00 +18°C° 0 mm 4 m/S 738 mmHg 78%
06:00 +19°C° 0 mm 4 m/S 738 mmHg 74%
07:00 +20°C° 0 mm 4 m/S 738 mmHg 71%
08:00 +21°C° 0 mm 5 m/S 738 mmHg 68%
09:00 +21°C° 0 mm 4 m/S 738 mmHg 66%
10:00 +22°C° 0 mm 4 m/S 738 mmHg 63%
11:00 +22°C° 0 mm 4 m/S 738 mmHg 61%
12:00 +22°C° 0.1 mm 4 m/S 738 mmHg 64%
13:00 +22°C° 0.1 mm 4 m/S 738 mmHg 68%
14:00 +22°C° 0.1 mm 4 m/S 738 mmHg 71%
15:00 +21°C° 0.2 mm 4 m/S 738 mmHg 77%
16:00 +20°C° 0.2 mm 4 m/S 738 mmHg 83%
17:00 +19°C° 0.2 mm 3 m/S 739 mmHg 90%
18:00 +19°C° 0.1 mm 3 m/S 738 mmHg 91%
19:00 +18°C° 0.1 mm 3 m/S 738 mmHg 92%
20:00 +18°C° 0.1 mm 3 m/S 738 mmHg 93%
21:00 +17°C° 0 mm 3 m/S 738 mmHg 94%
22:00 +17°C° 0 mm 2 m/S 738 mmHg 95%
23:00 +17°C° 0 mm 2 m/S 738 mmHg 96%
Mehr zeigen

Wir brauchen deine Erlaubnis

Meteoprog und unser Service Anbieter werden persönliche Daten aufbewahren, so wie Cookies, Geräte Bezeichnung oder ähnliche Technologien von deinem Gerät und Prozess, so wie Persönliche Daten Inhalte und Werbungen, genauso wie social Media und den Verkehr zu analysieren.

  • Aufbewahrung und/oder Zugang zu deiner Geräte Informationen.

    Cookies, Geräte Bezeichnung oder andere Informationen, können aufbewahrt oder Zugang zu deinem Gerät erhalten, für den Grund, der oben angegeben wird.

  • Personalisierte Werbung und Inhalte, Messungen, Einblick in das Publikum und Produkt Entwicklung.

    Werbungen und Inhalte können personalisiert werden, basierend auf ein Profil. Mehr Daten können besser personalisierte Werbungen und Inhalte hinzufügen. Werbung und Inhalte können gezeigt und gemessen werden. Einblicke über das Publikum, welche die Werbung gesehen haben und den Inhalt, können abgeleitet werden. So wie Daten können genutzt werden, um es zu verbessern oder die Benutzer Erfahrung zu verbessern das System und die Software.

Wenn du “Ich stimme zu” klickst, erlaubst du uns, die Cookies zu benutzen die Geräte Bezeichnung, den Web oder ähnliche Technologien zu benutzen. Deine Settings, können in deinem Gerät bei deinem Browser geändert werden.

Für den bestimmten Zweck, berechtigten Interessen beruhen darauf, mehr als auf den Inhalt. Du kannst mehr darüber in unseren Privaten und Cookie Politik lesen.